TimePDT,TemperatureF,Dew PointF,Humidity,Sea Level PressureIn,VisibilityMPH,Wind Direction,Wind SpeedMPH,Gust SpeedMPH,PrecipitationIn,Events,Conditions,WindDirDegrees,DateUTC
12:53 AM,69.1,41.0,36,29.83,10.0,WSW,15.0,-,N/A,,Clear,240,2013-07-28 07:53:00
1:53 AM,66.9,41.0,39,29.84,10.0,WSW,10.4,-,N/A,,Clear,240,2013-07-28 08:53:00
2:53 AM,64.9,43.0,45,29.85,10.0,SW,9.2,-,N/A,,Clear,230,2013-07-28 09:53:00
3:53 AM,64.0,43.0,46,29.85,10.0,SW,9.2,-,N/A,,Clear,230,2013-07-28 10:53:00
4:53 AM,61.0,39.0,44,29.86,10.0,SW,8.1,-,N/A,,Clear,220,2013-07-28 11:53:00
5:53 AM,62.1,39.0,43,29.86,10.0,SW,9.2,-,N/A,,Clear,220,2013-07-28 12:53:00
6:53 AM,64.9,42.1,43,29.87,10.0,WSW,12.7,-,N/A,,Clear,240,2013-07-28 13:53:00
7:53 AM,69.1,39.9,35,29.88,10.0,WSW,11.5,-,N/A,,Clear,250,2013-07-28 14:53:00
8:53 AM,72.0,41.0,33,29.87,10.0,West,15.0,-,N/A,,Clear,260,2013-07-28 15:53:00
9:53 AM,73.9,45.0,35,29.87,10.0,West,15.0,-,N/A,,Clear,270,2013-07-28 16:53:00
10:53 AM,79.0,46.0,31,29.86,10.0,West,9.2,-,N/A,,Clear,260,2013-07-28 17:53:00
11:53 AM,81.0,41.0,24,29.84,10.0,WSW,9.2,-,N/A,,Clear,240,2013-07-28 18:53:00
12:53 PM,82.9,39.9,22,29.83,10.0,West,11.5,-,N/A,,Clear,280,2013-07-28 19:53:00
1:53 PM,84.0,39.9,21,29.82,10.0,WNW,6.9,-,N/A,,Clear,300,2013-07-28 20:53:00
2:53 PM,84.9,41.0,21,29.80,10.0,West,8.1,-,N/A,,Clear,270,2013-07-28 21:53:00
3:53 PM,87.1,41.0,20,29.78,9.0,WSW,8.1,-,N/A,,Clear,250,2013-07-28 22:53:00
4:53 PM,87.1,39.9,19,29.77,6.0,West,4.6,-,N/A,,Haze,270,2013-07-28 23:53:00
5:53 PM,87.1,37.9,18,29.75,8.0,NW,4.6,-,N/A,,Clear,310,2013-07-29 00:53:00
6:53 PM,86.0,41.0,20,29.75,10.0,WSW,8.1,-,N/A,,Clear,240,2013-07-29 01:53:00
7:53 PM,79.0,46.0,31,29.76,10.0,West,8.1,-,N/A,,Clear,260,2013-07-29 02:53:00
8:53 PM,73.0,43.0,34,29.78,10.0,SW,9.2,-,N/A,,Clear,220,2013-07-29 03:53:00
9:53 PM,70.0,44.1,39,29.79,10.0,SW,10.4,-,N/A,,Clear,220,2013-07-29 04:53:00
10:53 PM,68.0,44.1,42,29.80,10.0,SW,10.4,-,N/A,,Clear,220,2013-07-29 05:53:00
11:53 PM,66.9,45.0,45,29.81,10.0,SW,10.4,-,N/A,,Clear,220,2013-07-29 06:53:00